TimeAKST,TemperatureF,Dew PointF,Humidity,Sea Level PressureIn,VisibilityMPH,Wind Direction,Wind SpeedMPH,Gust SpeedMPH,PrecipitationIn,Events,Conditions,WindDirDegrees,DateUTC
12:53 AM,3.0,-8.0,60,30.30,10.0,North,4.6,-,N/A,,Scattered Clouds,350,2012-11-20 09:53:00
1:53 AM,3.9,-7.1,60,30.30,10.0,North,5.8,-,N/A,,Partly Cloudy,350,2012-11-20 10:53:00
3:53 AM,3.0,-8.0,60,30.30,10.0,NNW,6.9,-,N/A,,Partly Cloudy,330,2012-11-20 12:53:00
4:53 AM,3.0,-8.0,60,30.29,10.0,NNW,6.9,-,N/A,,Clear,330,2012-11-20 13:53:00
5:53 AM,5.0,-7.1,58,30.29,10.0,West,9.2,-,N/A,,Clear,280,2012-11-20 14:53:00
6:53 AM,3.0,-8.0,60,30.27,10.0,North,6.9,-,N/A,,Clear,10,2012-11-20 15:53:00
7:53 AM,-0.0,-8.0,69,30.26,10.0,NNE,3.5,-,N/A,,Clear,20,2012-11-20 16:53:00
8:53 AM,-0.0,-8.0,69,30.25,10.0,North,3.5,-,N/A,,Clear,360,2012-11-20 17:53:00
9:53 AM,1.0,-8.0,66,30.25,10.0,Calm,Calm,-,N/A,,Clear,0,2012-11-20 18:53:00
10:53 AM,-0.0,-8.0,69,30.24,10.0,Calm,Calm,-,N/A,,Partly Cloudy,0,2012-11-20 19:53:00
11:53 AM,1.9,-6.0,69,30.25,10.0,Calm,Calm,-,N/A,,Clear,0,2012-11-20 20:53:00
12:53 PM,5.0,-4.0,66,30.25,10.0,Calm,Calm,-,N/A,,Clear,0,2012-11-20 21:53:00
1:53 PM,8.1,-2.9,61,30.24,10.0,Calm,Calm,-,N/A,,Scattered Clouds,0,2012-11-20 22:53:00
2:53 PM,8.1,-2.0,64,30.24,10.0,Calm,Calm,-,N/A,,Clear,0,2012-11-20 23:53:00
3:53 PM,9.0,-2.0,61,30.22,10.0,Calm,Calm,-,N/A,,Mostly Cloudy,0,2012-11-21 00:53:00
4:53 PM,6.1,-2.0,69,30.22,10.0,Calm,Calm,-,N/A,,Mostly Cloudy,0,2012-11-21 01:53:00
5:53 PM,6.1,-2.0,69,30.22,10.0,Calm,Calm,-,N/A,,Mostly Cloudy,0,2012-11-21 02:53:00
6:53 PM,3.9,-2.0,76,30.22,10.0,Calm,Calm,-,N/A,,Clear,0,2012-11-21 03:53:00
7:53 PM,6.1,-0.0,76,30.21,10.0,Calm,Calm,-,N/A,,Partly Cloudy,0,2012-11-21 04:53:00
8:53 PM,8.1,1.9,76,30.22,10.0,Calm,Calm,-,N/A,,Overcast,0,2012-11-21 05:53:00
9:53 PM,8.1,3.9,83,30.20,10.0,Calm,Calm,-,N/A,,Overcast,0,2012-11-21 06:53:00
10:53 PM,10.0,5.0,80,30.20,10.0,Calm,Calm,-,N/A,,Overcast,0,2012-11-21 07:53:00
11:53 PM,10.0,3.9,76,30.20,10.0,Calm,Calm,-,N/A,,Overcast,0,2012-11-21 08:53:00